Location: Newark
(40.7360°N, 74.1730°W)
Time: 04:12:17
(UTC-04:00)

ISS - All Passes

Search period start: 22 September 2014 00:00
Search period end: 02 October 2014 00:00
Orbit: 413 x 416 km, 51.6° (Epoch: 21 September)

Date Brightness Start Highest point End Pass type
(mag) Time Alt. Az. Time Alt. Az. Time Alt. Az.
22 Sep - 01:37:25 10° SSW 01:40:32 38° SE 01:43:39 10° ENE night (unlit)
22 Sep - 03:14:19 10° W 03:17:17 29° NNW 03:20:16 10° NE visible
22 Sep - 04:53:07 10° NW 04:54:49 13° N 04:56:31 10° NNE visible
22 Sep - 06:30:22 10° NNW 06:32:34 16° NNE 06:34:47 10° NE daylight
22 Sep - 08:06:32 10° NW 08:09:49 59° NNE 08:13:06 10° ESE daylight
22 Sep - 09:44:09 10° W 09:46:12 15° SW 09:48:14 10° S daylight
23 Sep - 00:49:08 10° S 00:51:45 21° SE 00:54:21 10° E night (unlit)
23 Sep - 02:25:04 10° WSW 02:28:16 44° NNW 02:31:29 10° NE night (unlit)
23 Sep - 04:03:37 10° NW 04:05:37 15° NNW 04:07:37 10° NNE visible
23 Sep - 05:41:32 10° NNW 05:43:23 14° N 05:45:15 10° NE visible
23 Sep - 07:17:42 10° NW 07:20:50 36° NNE 07:23:56 10° E daylight
23 Sep - 08:54:35 10° WNW 08:57:27 27° SW 09:00:18 10° SSE daylight
24 Sep - 00:01:35 10° SSE 00:02:59 12° SE 00:04:23 10° ESE night (unlit)
24 Sep - 01:35:57 10° WSW 01:39:16 74° NW 01:42:36 10° NE night (unlit)
24 Sep - 03:14:03 10° WNW 03:16:25 18° NNW 03:18:47 10° NNE visible
24 Sep - 04:52:32 10° NNW 04:54:09 13° N 04:55:46 10° NNE visible
24 Sep - 06:28:53 10° NW 06:31:44 25° NNE 06:34:35 10° E daylight
24 Sep - 08:05:22 10° WNW 08:08:35 49° SW 08:11:48 10° SE daylight
25 Sep - 00:47:01 10° SW 00:50:18 62° SE 00:53:36 10° ENE night (unlit)
25 Sep - 02:24:30 10° WNW 02:27:14 23° NNW 02:29:58 10° NNE night (unlit)
25 Sep - 04:03:17 10° NNW 04:04:52 13° N 04:06:26 10° NNE visible
25 Sep - 05:40:03 10° NNW 05:42:34 19° NNE 05:45:03 10° ENE visible
25 Sep - 07:16:18 10° NW 07:19:38 89° SW 07:22:57 10° SE daylight
25 Sep - 23:58:20 10° SSW 00:01:21 33° SE 00:04:24 10° ENE night (unlit)
26 Sep - 01:35:02 10° W 01:38:03 32° NNW 01:41:05 10° NE night (unlit)
26 Sep - 03:13:47 10° NW 03:15:33 14° N 03:17:18 10° NNE visible
26 Sep - 04:51:10 10° NNW 04:53:18 16° NNE 04:55:26 10° NE visible
26 Sep - 06:27:19 10° NW 06:30:35 52° NNE 06:33:50 10° ESE daylight
26 Sep - 08:04:43 10° W 08:07:00 17° SW 08:09:17 10° S daylight
26 Sep - 23:10:01 10° S 23:12:27 19° SE 23:14:53 10° E night (unlit)
27 Sep - 00:45:40 10° WSW 00:48:54 49° NNW 00:52:09 10° NE night (unlit)
27 Sep - 02:24:08 10° NW 02:26:13 15° NNW 02:28:18 10° NNE night (unlit)
27 Sep - 04:02:10 10° NNW 04:03:58 14° N 04:05:46 10° NE visible
27 Sep - 05:38:22 10° NW 05:41:26 33° NNE 05:44:29 10° E visible
27 Sep - 07:15:07 10° WNW 07:18:06 31° SW 07:21:03 10° SSE daylight
27 Sep - 22:22:50 10° SE 22:23:34 11° SE 22:24:18 10° ESE night (unlit)
27 Sep - 23:56:27 10° SW 23:59:47 84° NW 00:03:07 10° NE night (unlit)
28 Sep - 01:34:26 10° WNW 01:36:53 19° NNW 01:39:20 10° NNE night (unlit)
28 Sep - 03:12:59 10° NNW 03:14:35 13° N 03:16:10 10° NNE visible
28 Sep - 04:49:25 10° NNW 04:52:11 24° NNE 04:54:57 10° E visible
28 Sep - 06:25:49 10° WNW 06:29:05 56° SW 06:32:20 10° SE daylight
28 Sep - 23:07:26 10° SW 23:10:41 53° SE 23:13:57 10° ENE night (unlit)
29 Sep - 00:44:45 10° W 00:47:33 24° NNW 00:50:22 10° NE night (unlit)
29 Sep - 02:23:33 10° NNW 02:25:09 13° N 02:26:45 10° NNE night (unlit)
29 Sep - 04:00:26 10° NNW 04:02:51 18° NNE 04:05:16 10° ENE visible
29 Sep - 05:36:38 10° NW 05:39:59 80° NE 05:43:18 10° ESE visible
29 Sep - 07:15:09 10° WSW 07:16:12 11° SW 07:17:16 10° SSW daylight
29 Sep - 22:18:42 10° SSW 22:21:37 29° SE 22:24:33 10° ENE night (unlit)
29 Sep - 23:55:10 10° W 23:58:15 35° NNW 00:01:21 10° NE night (unlit)
30 Sep - 01:33:52 10° NW 01:35:42 14° N 01:37:31 10° NNE night (unlit)
30 Sep - 03:11:24 10° NNW 03:13:27 15° NNE 03:15:29 10° NE night (unlit)
30 Sep - 04:47:32 10° NW 04:50:46 46° NNE 04:53:59 10° ESE visible
30 Sep - 06:24:44 10° W 06:27:14 20° SW 06:29:44 10° S visible
30 Sep - 21:30:24 10° S 21:32:35 17° SE 21:34:47 10° E night (unlit)
30 Sep - 23:05:42 10° WSW 23:08:59 55° NNW 23:12:16 10° NE night (unlit)
01 Oct - 00:44:03 10° NW 00:46:14 16° NNW 00:48:24 10° NNE night (unlit)
01 Oct - 02:22:14 10° NNW 02:23:58 13° N 02:25:42 10° NE night (unlit)
01 Oct - 03:58:27 10° NW 04:01:28 30° NNE 04:04:27 10° E visible
01 Oct - 05:35:06 10° WNW 05:38:10 35° SW 05:41:14 10° SSE visible
01 Oct - 22:16:24 10° SW 22:19:44 84° SE 22:23:04 10° NE night (unlit)
01 Oct - 23:54:13 10° WNW 23:56:46 20° NNW 23:59:18 10° NNE night (unlit)
